Regional Weather Roundup
Issued by NWS

Home | Current Version | Previous Version | Graphics & Text | Print | Product List | Glossary On
Versions: 1 2 3 4 5 6 7 8 9 10 11 12 13 14 15 16 17 18 19 20 21 22 23 24 25 26 27
000
ASUS43 KDMX 230907
RWRIA

WEATHER ROUNDUP FOR IOWA
NATIONAL WEATHER SERVICE DES MOINES IA
400 AM CDT THU OCT 23 2014

NOTE: "FAIR" INDICATES FEW OR NO CLOUDS BELOW 12,000 FEET WITH NO
SIGNIFICANT WEATHER AND/OR OBSTRUCTIONS TO VISIBILITY.

* - THESE STATIONS ARE NOT NWS STATIONS...THUS NOT UNDER NWS
QUALITY CONTROL.  THEY ALSO DO NOT REPORT WEATHER SUCH
AS PRECIPITATION OR FOG.

IAZ001>003-012>014-020>022-031>034-043>046-231000-
   NORTHWEST IOWA

CITY           SKY/WX    TMP DP  RH WIND       PRES   REMARKS
CARROLL *      CLOUDY    55  55 100 S9        30.02F
CHEROKEE *     CLOUDY    57  57 100 CALM      30.01S
DENISON *      CLOUDY    57  57 100 S8G14     30.00F FOG
LE MARS *      FOG       54  54 100 NW5       30.02F VSB 0
ORANGE CITY *  FOG       54  52  94 NW5       30.02F VSB 0
SHELDON *      FOG       52  52 100 NW5       30.01S VSB 0
SIOUX CITY     CLOUDY    55  54  96 NW6       30.02F FOG
SPENCER        CLOUDY    57  55  93 SW5       30.01S FOG
STORM LAKE *   CLOUDY    57  57 100 SW7       30.02F FOG
$$

IAZ055>058-069>071-079>083-090>094-231000-
   SOUTHWEST IOWA

CITY           SKY/WX    TMP DP  RH WIND       PRES   REMARKS
ATLANTIC *     CLOUDY    57  55  94 S10       30.03F
AUDUBON *      LGT RAIN  55  50  82 S12       30.04S
CLARINDA *     CLOUDY    57  57 100 SE5       30.07F
COUNCIL BLFS * CLOUDY    61  61 100 SW8       30.02F
CRESTON *      CLOUDY    54  54 100 S14       30.06F
HARLAN  *      CLOUDY    57  57 100 S9        30.06F FOG
LAMONI         LGT RAIN  53  50  89 S6        30.08F
RED OAK *      CLOUDY    59  59 100 S8        30.04F
SHENANDOAH *   CLOUDY    59  59 100 SE13      30.04F
$$

IAZ047>049-059>061-072>074-084-231000-
   CENTRAL IOWA

CITY           SKY/WX    TMP DP  RH WIND       PRES   REMARKS
AMES           CLOUDY    51  48  89 SE7       30.05F
ANKENY *       CLOUDY    52  50  93 S6        30.06F
CHARITON *     CLOUDY    54  45  71 S8        30.09F
DES MOINES     CLOUDY    53  49  86 S8        30.07F
GRINNELL*      HVY RAIN  48  43  81 SE6       30.09F
KNOXVILLE *    MOCLDY    52  45  76 S6        30.08F
MARSHALLTOWN   LGT RAIN  49  45  86 SE6       30.08S
PELLA *        RAIN      52  45  76 S6        30.11F
PERRY *        CLOUDY    54  52  94 S5        30.04F
$$

IAZ004>006-015-016-023>025-035-036-231000-
   NORTH CENTRAL IOWA

CITY           SKY/WX    TMP DP  RH WIND       PRES   REMARKS
ALGONA *       RAIN      54  54 100 S13       30.02S VSB 3/4
CLARION *      CLOUDY    52  52 100 S13       30.02F
ESTHERVILLE    CLOUDY    54  54 100 S8        30.00F FOG
FORT DODGE *   CLOUDY    54  50  87 S10       30.02F
MASON CITY     CLOUDY    50  46  86 S10       30.05F
FOREST CITY *  CLOUDY    52  48  87 S8        30.02F
IOWA FALLS *   MOCLDY    50  46  87 SE9       30.06S
$$

IAZ007>011-017>019-026>030-037>042-050>054-066-231000-
   NORTHEAST IOWA

CITY           SKY/WX    TMP DP  RH WIND       PRES   REMARKS
CEDAR RAPIDS   PTCLDY    47  40  76 S6        30.12S
CHARLES CITY * CLOUDY    48  45  87 SE9       30.07F
CLINTON *      CLEAR     41  34  75 SE7       30.19F
DECORAH *      CLOUDY    50  41  71 S8        30.09S
DUBUQUE        MOCLDY    44  37  76 SW13      30.15R
MONTICELLO *   CLOUDY    45  39  81 SE3       30.14S
OELWEIN *      CLOUDY    50  41  71 S13       30.11S
WATERLOO       RAIN      50  44  80 S8        30.09F
$$

IAZ064-065-067-068-078-231000-
   EAST CENTRAL IOWA

CITY           SKY/WX    TMP DP  RH WIND       PRES   REMARKS
DAVENPORT      PTCLDY    44  35  70 S13       30.16F
IOWA CITY      PTCLDY    43  39  86 SE5       30.15F
MT. PLEASANT * CLEAR     45  39  81 S6        30.14F
MUSCATINE *    CLEAR     41  36  81 CALM      30.16F
QUAD CITIES    PTCLDY    41  35  79 SE3       30.16F
$$

IAZ062-063-075>077-085>089-095>099-231000-
   SOUTHEAST IOWA

CITY           SKY/WX    TMP DP  RH WIND       PRES   REMARKS
BURLINGTON     PTCLDY    47  40  76 S10       30.15F
FAIRFIELD *    PTCLDY    48  41  76 S12       30.12F
FORT MADISON * CLEAR     48  43  81 S8        30.15F
KEOKUK *       CLEAR     46  41  81 SE7       30.15S
OSKALOOSA *      N/A     48  43  81 SW3       30.12S
CENTERVILLE *  PTCLDY    50  43  76 W5        30.13R
OTTUMWA        CLOUDY    51  41  68 W7        30.13R
WASHINGTON *   CLEAR     45  43  93 S7        30.13F
$$

ABBREVIATIONS USED IN REMARKS
   TC - TEMPERATURES IN CELSIUS
  WCI - WIND CHILL INDEX
   HX - HEAT INDEX
  VSB - VISIBILITY
$$




USA.gov is the U.S. government's official web portal to all federal, state and local government web resources and services.